Location: *
(45.9500°N, 9.0833°E)
Time: 20:49:28
(UTC+00:00)

Tiros 1 - Pass Details

Date: 21 June 2021
Orbit: 630 x 664 km, 48.4° (Epoch: 05 August)

Event Time Altitude Azimuth Distance (km) Brightness Sun altitude
Rises 15:03:19 0° 288° (WNW) 2,955 11.2 41.1°
Reaches altitude 10° 15:05:51 10° 278° (W) 2,048 10.8 40.6°
Maximum altitude 15:09:58 30° 217° (SW) 1,162 9.4 39.9°
Drops below altitude 10° 15:14:06 10° 157° (SSE) 2,058 9.7 39.2°
Sets 15:16:40 0° 146° (SE) 2,971 10.3 38.8°
